Terminal Aerodrome Forecast
Issued by NWS Sioux Falls, SD

Home | Current Version | Previous Version | Graphics & Text | Print | Product List | Glossary On
Versions: 1 2 3 4 5 6 7 8 9 10 11 12 13 14 15 16 17 18 19 20 21 22 23 24 25 26 27 28 29 30 31 32
488
FTUS43 KFSD 292340
TAFSUX
TAF
KSUX 292340Z 3000/3024 12006KT P6SM SCT070 OVC200
     FM300100 13004KT P6SM SCT100 OVC200
     FM301100 VRB03KT 4SM BR SCT060 OVC100
     FM301400 VRB04KT P6SM OVC120=

USA.gov is the U.S. government's official web portal to all federal, state and local government web resources and services.